Regional Weather Roundup
Issued by NWS

Home | Current Version | Previous Version | Graphics & Text | Print | Product List | Glossary On
Versions: 1 2 3 4 5 6 7 8 9 10 11 12 13 14 15 16 17 18 19 20 21 22 23 24 25 26 27 28 29 30 31 32 33 34 35 36 37 38 39 40 41 42 43 44 45 46 47 48 49 50
000
ASUS43 KIND 282159
RWRIN

WEATHER ROUNDUP FOR INDIANA
NATIONAL WEATHER SERVICE INDIANAPOLIS IN
600 PM EDT THU MAY 28 2015

NOTE: "FAIR" INDICATES FEW OR NO CLOUDS BELOW 12,000 FEET WITH NO
SIGNIFICANT WEATHER AND/OR OBSTRUCTIONS TO VISIBILITY.

* - STATION DOES NOT REPORT WEATHER SUCH AS PRECIPITATION OR FOG.

+ - STATION NOT QUALITY CONTROLLED BY THE NATIONAL WEATHER SERVICE.
    USE DATA WITH CAUTION...ESPECIALLY DEWPOINT AND RELATIVE
    HUMIDITY OBSERVATIONS.

INZ001>003-010>013-019-020-282300-
NORTHWEST INDIANA

CITY           SKY/WX    TMP DP  RH WIND       PRES   REMARKS
GARY /AIRPORT/ MOSUNNY   77  55  47 NE9       30.14F
MONTICELLO +   MOSUNNY   82  58  43 S5        30.12F
RENSSELAER +   MOSUNNY   82  54  36 SE14      30.13F

$$

LMZ046-743>745-282300-
SOUTHERN LAKE MICHIGAN

STATION/POSITION TIME  TEMP    WIND        PRES    WAVE
                       AIR SEA DIR/SP/G            HT
                 (UTC) (F)     (DEG/KT/KT) (MB)    (FT)
BURNS HARBOR     2100   64      70/ 10/ 13 1021.3F
MICHIGAN CITY    2100   69      10/ 11/ 13   N/A
5NW MICH CITY    2100   60 56   30/  6/  8   N/A     1

$$

INZ004-005-014>016-021>024-282300-
NORTH CENTRAL INDIANA

CITY           SKY/WX    TMP DP  RH WIND       PRES   REMARKS
ELKHART        SUNNY     81  54  39 S9        30.18S
GOSHEN         SUNNY     81  58  45 E12       30.17F
SOUTH BEND     SUNNY     82  54  37 SE13      30.17S
WARSAW +       SUNNY     79  59  50 SE9       30.16F

$$

INZ006>009-017-018-025>027-282300-
NORTHEAST INDIANA

CITY           SKY/WX    TMP DP  RH WIND       PRES   REMARKS
ANGOLA *+      SUNNY     81  55  41 SE10      30.19S
FORT WAYNE     MOSUNNY   81  59  47 E12       30.16F

$$

INZ028-029-035-036-043>045-051>053-282300-
WEST CENTRAL INDIANA

CITY           SKY/WX    TMP DP  RH WIND       PRES   REMARKS
CRAWFORDSVL +  MOSUNNY   81  46  29 S9        30.12F
GREENCASTLE +  SUNNY     81  57  44 S5        30.13F
LAFAYETTE      MOSUNNY   81  55  40 SE6       30.11F
TERRE HAUTE    MOSUNNY   85  61  44 S9        30.10F

$$

INZ030>032-037>040-046>048-054>057-064-065-282300-
CENTRAL INDIANA

CITY           SKY/WX    TMP DP  RH WIND       PRES   REMARKS
COLUMBUS       MOSUNNY   81  57  44 S9        30.14F
GREENWOOD *+   MOSUNNY   84  55  37 S9        30.14F
INDIANAPOLIS   MOSUNNY   83  59  44 S10       30.12F
-EAGLE CREEK   MOSUNNY   83  58  42 S7        30.12F
KOKOMO *+      SUNNY     82  57  42 SE13      30.13F
MT COMFORT *+  SUNNY     84  41  21 S9        30.14F
SHELBYVILLE    MOSUNNY   85  60  42 S8        30.13F

$$

INZ033-034-041-042-049-050-058-059-282300-
EAST CENTRAL INDIANA

CITY           SKY/WX    TMP DP  RH WIND       PRES   REMARKS
MUNCIE         MOSUNNY   84  56  38 S7        30.14F

$$

INZ060-061-067>069-081>083-085>088-282300-
SOUTHWEST INDIANA

CITY           SKY/WX    TMP DP  RH WIND       PRES   REMARKS
EVANSVILLE     MOSUNNY   83  65  54 S8        30.10F
HUNTINGBURG *+ MOSUNNY   81  64  57 E6        30.12F

$$

INZ062-063-066-070>080-084-089>092-282300-
SOUTH CENTRAL AND SOUTHEAST INDIANA

CITY           SKY/WX    TMP DP  RH WIND       PRES   REMARKS
BLOOMINGTON    MOSUNNY   82  62  50 S9        30.13F
MADISON *+     SUNNY     81  59  47 CALM      30.17F
SEYMOUR +      SUNNY     84  63  48 SE10      30.13F

$$



USA.gov is the U.S. government's official web portal to all federal, state and local government web resources and services.